This is the latest recevied weather packets stored in our database for station/object 9W2UHF-10. If no packets are shown the sender has not sent any weather packets the latest 1 day(s).
| Time | Temp. | Humidity | Pressure | Rain* | Wind** | Luminosity | Snow |
|---|---|---|---|---|---|---|---|
| 1778107778 | 30° C | 72% | 1009.3 hPa | - | - | - | - |
| 1778106578 | 30° C | 71% | 1009.2 hPa | - | - | - | - |
| 1778105378 | 30.56° C | 70% | 1009.2 hPa | - | - | - | - |
| 1778104178 | 30.56° C | 70% | 1009 hPa | - | - | - | - |
| 1778102978 | 30.56° C | 70% | 1008.8 hPa | - | - | - | - |
| 1778100653 | 30.56° C | 71% | 1008.7 hPa | - | - | - | - |
| 1778097012 | 30.56° C | 69% | 1008.9 hPa | - | - | - | - |
| 1778092179 | 31.11° C | 70% | 1009.8 hPa | - | - | - | - |
| 1778089779 | 31.11° C | 70% | 1010.4 hPa | - | - | - | - |
| 1778088579 | 31.11° C | 71% | 1010.5 hPa | - | - | - | - |
| 1778087379 | 31.11° C | 70% | 1010.8 hPa | - | - | - | - |
| 1778086179 | 31.11° C | 71% | 1010.9 hPa | - | - | - | - |
| 1778084979 | 31.67° C | 70% | 1011 hPa | - | - | - | - |
| 1778080214 | 31.67° C | 70% | 1011.5 hPa | - | - | - | - |
| 1778077779 | 31.67° C | 70% | 1011.1 hPa | - | - | - | - |
| 1778075378 | 31.67° C | 71% | 1010.9 hPa | - | - | - | - |
| 1778070754 | 32.22° C | 70% | 1008.7 hPa | - | - | - | - |
| 1778070577 | 32.22° C | 71% | 1009.4 hPa | - | - | - | - |
| 1778066977 | 32.22° C | 70% | 1008.5 hPa | - | - | - | - |
| 1778064577 | 32.22° C | 70% | 1008.8 hPa | - | - | - | - |
| 1778063619 | 32.22° C | 68% | 1008.2 hPa | - | - | - | - |
| 1778063377 | 32.22° C | 70% | 1008.7 hPa | - | - | - | - |
| 1778062177 | 32.22° C | 68% | 1008.2 hPa | - | - | - | - |
| 1778060977 | 32.78° C | 68% | 1007.8 hPa | - | - | - | - |
| 1778056229 | 32.78° C | 62% | 1007.8 hPa | - | - | - | - |
* Rain since midnight (hover to see other rain measurements)
** Current wind speed in m/s (hover to see current wind gust speed)